Overview Statistics Trail Chart Weather Telemetry Raw packets
 

This is the latest recevied weather packets stored in our database for station/object CT7BNL-13. If no packets are shown the sender has not sent any weather packets the latest 10 day(s).

<< 4 5 6 7 8 9 10 >>
Time Temp. Humidity Pressure Rain* Wind** Luminosity Snow
1788484764 22.78° C 59% 1026.5 hPa 0 mm - 0 W/m² -
1788483864 23.33° C 59% 1026.8 hPa 0 mm - 0 W/m² -
1788482965 23.33° C 62% 1027 hPa 0 mm - 0 W/m² -
1788482066 23.33° C 61% 1027.2 hPa 0 mm - 0 W/m² -
1788480264 24.44° C 55% 1027.3 hPa 0 mm - 0 W/m² -
1788479365 23.89° C 57% 1027.3 hPa 0 mm - 0 W/m² -
1788478464 24.44° C 53% 1027.3 hPa 0 mm - 0 W/m² -
1788476666 25.56° C 52% 1027.3 hPa 0 mm - 0 W/m² -
1788475764 26.67° C 47% 1027.2 hPa 0 mm - 0 W/m² -
1788474865 26.67° C 46% 1027.2 hPa 0 mm - 0 W/m² -
1788473966 27.78° C 45% 1027.3 hPa 0 mm - 0 W/m² -
1788473064 27.78° C 47% 1027.1 hPa 0 mm - 0 W/m² -
1788472165 28.33° C 44% 1027.3 hPa 0 mm - 0 W/m² -
1788471264 27.78° C 47% 1027.3 hPa 0 mm - 0 W/m² -
1788470364 28.33° C 45% 1027.3 hPa 0 mm - 0 W/m² -
1788469465 26.67° C 55% 1027.3 hPa 0 mm - 0 W/m² -
1788468564 27.78° C 52% 1027.3 hPa 0 mm - 0 W/m² -
1788467665 27.78° C 53% 1027.3 hPa 0 mm - 0 W/m² -
1788466766 28.33° C 50% 1027.4 hPa 0 mm - 0 W/m² -
1788465866 29.44° C 46% 1027 hPa 0 mm - 0 W/m² -
1788464965 30° C 41% 1026.8 hPa 0 mm - 0 W/m² -
1788464065 30° C 37% 1026.8 hPa 0 mm - 0 W/m² -
1788463166 30.56° C 34% 1026.4 hPa 0 mm - 0 W/m² -
1788462265 32.22° C 30% 1026.4 hPa 0 mm - 3 W/m² -
1788461366 32.78° C 30% 1026.2 hPa 0 mm - 12 W/m² -

* Rain latest hour (hover to see other rain measurements)
** Current wind speed in m/s (hover to see current wind gust speed)